Regional Weather Roundup
Issued by NWS

Home | Current Version | Previous Version | Graphics & Text | Print | Product List | Glossary Off
Versions: 1 2 3 4 5 6 7 8 9 10 11 12 13 14 15 16 17 18 19 20 21 22 23 24 25 26 27 28 29 30 31 32 33 34 35 36 37 38 39 40 41 42 43 44 45 46 47 48 49 50

220
ASUS43 KLMK 060310
RWRKY
KENTUCKY REGIONAL WEATHER ROUNDUP
NATIONAL WEATHER SERVICE LOUISVILLE KY
1000 PM EST FRI FEB 05 2016

NOTE "FAIR" INDICATES FEW OR NO CLOUDS BELOW 12,000 FEET
WITH NO SIGNIFICANT WEATHER AND/OR OBSTRUCTIONS TO VISIBILITY.

KYZ001>023-026-027-061>063-070>075-060400-
WESTERN AND SOUTH CENTRAL KENTUCKY

CITY           SKY/WX    TMP DP  RH WIND       PRES   REMARKS
PADUCAH        PTCLDY    31  23  72 CALM      30.35S
HENDERSON      CLEAR     30  25  80 CALM      30.37S
OWENSBORO      CLOUDY    36  26  67 N6        30.37R WCI  31
HOPKINSVILLE   PTCLDY    40  22  49 VRB1      30.35F
BOWLING GREEN  CLEAR     38  20  48 S7        30.37F WCI  33
GLASGOW        CLOUDY    37  20  51 CALM      30.37F
$$

KYZ024-025-028>034-038-045-046-053-060400-
NORTH CENTRAL KENTUCKY

CITY           SKY/WX    TMP DP  RH WIND       PRES   REMARKS
LOUISVILLE/SDF CLOUDY    36  20  52 SE5       30.34F WCI  32
LOUISVILLE/LOU CLOUDY    38  20  48 S3        30.35F
FORT KNOX      CLOUDY    33  20  59 S2        30.33F
$$

KYZ035>037-039>044-047>052-055>060-089>105-060400-
NORTHEAST KENTUCKY

CITY           SKY/WX    TMP DP  RH WIND       PRES   REMARKS
LEXINGTON      CLOUDY    32  19  58 S7        30.36F WCI  26
COVINGTON      PTCLDY    32  19  58 S7        30.32F WCI  26
FRANKFORT      CLOUDY    34  17  50 S5        30.34F WCI  30
$$

KYZ054-064>069-076>088-106>120-060400-
SOUTHEAST KENTUCKY

CITY           SKY/WX    TMP DP  RH WIND       PRES   REMARKS
JACKSON        CLOUDY    34  13  41 S5        30.36F WCI  30
LONDON         CLOUDY    30  20  66 CALM      30.38R
SOMERSET       CLOUDY    30  21  69 CALM      30.40F
MIDDLESBORO    CLOUDY    29  22  75 CALM      30.40S
MONTICELLO     CLOUDY    26  23  88 VRB7      30.41S WCI  18
$$





USA.gov is the U.S. government's official web portal to all federal, state and local government web resources and services.